This is the latest recevied weather packets stored in our database for station/object AB1AU. If no packets are shown the sender has not sent any weather packets the latest 10 day(s).
| Time | Temp. | Humidity | Pressure | Rain* | Wind** | Luminosity | Snow |
|---|---|---|---|---|---|---|---|
| 1777751047 | 6.11° C | 88% | 1013.4 hPa | 0 mm | - | 53 W/m² | - |
| 1777750743 | 6.67° C | 88% | 1013.4 hPa | 0 mm | - | 41 W/m² | - |
| 1777750440 | 6.67° C | 88% | 1013.4 hPa | 0 mm | - | 35 W/m² | - |
| 1777750135 | 6.67° C | 87% | 1013.4 hPa | 0 mm | - | 49 W/m² | - |
| 1777749833 | 6.67° C | 87% | 1013.3 hPa | 0 mm | - | 46 W/m² | - |
| 1777749530 | 6.11° C | 87% | 1013.6 hPa | 0 mm | - | 47 W/m² | - |
| 1777749228 | 6.67° C | 87% | 1013.7 hPa | 0 mm | - | 50 W/m² | - |
| 1777748925 | 6.67° C | 87% | 1013.6 hPa | 0 mm | - | 38 W/m² | - |
| 1777748622 | 6.67° C | 87% | 1013.7 hPa | 1.78 mm | - | 62 W/m² | - |
| 1777748318 | 6.67° C | 87% | 1013.6 hPa | 1.78 mm | - | 49 W/m² | - |
| 1777748013 | 6.67° C | 87% | 1013.6 hPa | 0 mm | - | 62 W/m² | - |
| 1777747711 | 6.67° C | 87% | 1013.7 hPa | 0 mm | - | 75 W/m² | - |
| 1777747406 | 6.67° C | 86% | 1013.8 hPa | 1.27 mm | - | 46 W/m² | - |
| 1777747103 | 6.67° C | 86% | 1013.7 hPa | 1.27 mm | - | 42 W/m² | - |
| 1777746799 | 6.11° C | 86% | 1013.5 hPa | 0 mm | - | 46 W/m² | - |
| 1777746494 | 6.11° C | 86% | 1013.7 hPa | 0 mm | - | 39 W/m² | - |
| 1777746190 | 6.67° C | 85% | 1013.8 hPa | 0 mm | - | 42 W/m² | - |
| 1777745887 | 6.67° C | 85% | 1013.8 hPa | 0 mm | - | 50 W/m² | - |
| 1777745586 | 6.67° C | 85% | 1013.9 hPa | 0 mm | - | 33 W/m² | - |
| 1777745283 | 6.67° C | 85% | 1013.7 hPa | 0 mm | - | 33 W/m² | - |
| 1777744980 | 6.67° C | 84% | 1013.7 hPa | 0 mm | - | 43 W/m² | - |
| 1777744675 | 6.67° C | 84% | 1013.7 hPa | 1.78 mm | - | 45 W/m² | - |
| 1777744370 | 6.67° C | 84% | 1013.9 hPa | 1.78 mm | - | 45 W/m² | - |
| 1777744067 | 6.67° C | 83% | 1013.9 hPa | 0 mm | - | 66 W/m² | - |
| 1777743765 | 6.67° C | 83% | 1013.9 hPa | 0 mm | - | 47 W/m² | - |
* Rain latest hour (hover to see other rain measurements)
** Current wind speed in m/s (hover to see current wind gust speed)